www.pogodaiklimat.ru

Погода и климат >> Архив погоды >> Молдова >> Дубоссары


ПОГОДА в Дубоссарах

  • Прогноз погоды в Дубоссарах
  • Монитор погоды в Дубоссарах

АРХИВ ПОГОДЫ в Дубоссарах

Время (UTC), дата Ветер
(напр.,м/с)
 
Видим.   Явления Облачность Т
(С)
Тd
(С)
f
(%)
Тe
(С)
Тes
(С)
Комфортность P
(гПа)
Po
(гПа)
Тmin
(С)
Tmax
(С)
R
(мм)
R24
(мм)
S
(см)
18 16.08 С 1 10 км 8/4 1000 м
[Sc Ac trans]
+21.9 +7.1 38 +23 +23 комфорт 1012.9 1008.1 +26.5
21 16.08 С 1 10 км 5/3 600 м
[Sc Ac trans]
+17.8 +9.7 59 +19 +19 1014.1 1009.2
00 17.08 С 1 10 км 3/0
[Ci sp]
+16.3 +9.7 65 +17 +17 1014.4 1009.5
03 17.08 СЗ 1 10 км 3/0
[Ci sp]
+13.7 +9.7 77 +14 +14 1014.5 1009.5
06 17.08 СЗ 3 10 км 3/0
[Ac trans]
+18.1 +9.8 58 +18 +22 1014.9 1010.0 +13.5
09 17.08 СЗ 4 10 км 6/4 600 м
[Cb calv Ci fib]
+22.6 +8.0 39 +24 +29 комфорт 1014.3 1009.5
12 17.08 СЗ 5
{12}
10 км 8/5 600 м
[Cb calv Ac trans Ci sp]
+25.6 +8.1 33 +26 +28 жарко 1013.2 1008.4
15 17.08 СЗ 3 10 км 6/3 600 м
[Cb calv Ac trans Ci sp]
+25.1 +5.6 29 +25 +26 комфорт 1013.2 1008.4
18 17.08 С 2 10 км 1/0
[Ac trans]
+21.4 +8.2 43 +23 +23 комфорт 1013.7 1008.9 +26.2
21 17.08 штиль 0 10 км ясно +18.9 +9.0 53 +19 +19 1014.1 1009.2
00 18.08 штиль 0 10 км ясно +15.0 +10.0 72 +15 +15 1015.1 1010.1
03 18.08 штиль 0 10 км ясно +13.0 +9.9 81 +13 +13 1015.1 1010.1
06 18.08 З 1 10 км ясно +18.5 +11.5 64 +20 +26 1015.3 1010.4 +12.8
09 18.08 СЗ 2 10 км 8/8 1000 м
[Cu hum]
+24.8 +10.9 42 +26 +29 жарко 1015.4 1010.6
12 18.08 СЗ 2 10 км 8/6 1000 м
[Cu hum Ac trans]
+28.3 +8.4 29 +28 +31 жарко 1015.2 1010.4
15 18.08 С 2 10 км 3/3 1000 м
[Cu hum]
+28.3 +7.3 27 +28 +29 жарко 1015.1 1010.3
18 18.08 штиль 0 10 км 3/0
[Ci sp]
+23.0 +11.7 49 +25 +25 комфорт 1015.7 1010.9 +29.0
21 18.08 штиль 0 10 км ясно +17.9 +12.3 70 +18 +18 1016.5 1011.6
00 19.08 штиль 0 10 км ясно +15.1 +11.0 76 +15 +15 1017.4 1012.4
03 19.08 ЮВ 1 10 км ясно +13.0 +10.3 84 +13 +13 1018.3 1013.3
06 19.08 СЗ 1 10 км ясно +18.3 +11.3 64 +20 +26 1018.9 1014.0 +12.7
09 19.08 З 1 10 км 1/1 600 м
[Cu hum]
+28.7 +9.5 30 +29 +43 жарко 1019.0 1014.2
12 19.08 З 1 10 км 3/3 600 м
[Cu hum]
+30.7 +7.7 24 +30 +39 жарко 1018.2 1013.4
15 19.08 СЗ 1 10 км ясно +31.1 +8.1 24 +30 +33 жарко 1017.9 1013.1
18 19.08 штиль 0 10 км ясно +23.7 +12.8 50 +26 +26 жарко 1018.4 1013.6 +32.5
21 19.08 штиль 0 10 км ясно +21.2 +13.2 60 +24 +24 комфорт 1018.9 1014.1
00 20.08 штиль 0 10 км ясно +17.4 +11.1 66 +17 +17 1019.4 1014.5
03 20.08 штиль 0 10 км ясно +14.8 +9.5 71 +15 +15 1020.3 1015.2
06 20.08 З 1 10 км ясно +19.3 +12.1 63 +22 +27 комфорт 1021.2 1016.2 +14.8
09 20.08 СЗ 2 10 км ясно +27.0 +12.8 41 +29 +42 жарко 1021.0 1016.2
12 20.08 штиль 0 10 км ясно +33.1 +8.6 22 +32 +48 жарко 1020.3 1015.6
15 20.08 В 1 10 км 1/0
[Ac trans]
+33.1 +9.4 23 +32 +35 жарко 1019.7 1015.0
18 20.08 В 1 10 км ясно +27.1 +11.9 39 +28 +28 жарко 1020.2 1015.4 +34.0
21 20.08 штиль 0 10 км ясно +23.0 +13.5 55 +26 +26 жарко 1021.1 1016.2
00 21.08 штиль 0 10 км ясно +20.1 +13.2 64 +22 +22 комфорт 1021.2 1016.2
03 21.08 СЗ 1 10 км ясно +17.5 +14.2 81 +19 +19 1021.2 1016.2
06 21.08 СЗ 2 10 км ясно +21.9 +12.6 56 +24 +29 комфорт 1021.4 1016.5 +16.6
09 21.08 С 1 10 км ясно +29.4 +15.5 43 +32 +48 душно 1020.1 1015.3
12 21.08 СВ 2 10 км ясно +34.3 +10.2 23 +33 +45 жарко 1018.7 1014.0
15 21.08 СВ 1 10 км ясно +34.3 +12.3 26 +34 +37 очень
жарко
1017.6 1012.9
18 21.08 СВ 1 10 км 1/0
[Ac trans]
+28.6 +13.3 39 +30 +30 жарко 1017.9 1013.1 +35.5
21 21.08 штиль 0 10 км ясно +24.8 +12.9 48 +27 +27 жарко 1018.8 1014.0
00 22.08 С 1 10 км ясно +23.0 +13.1 54 +26 +26 жарко 1019.1 1014.3
03 22.08 СВ 2 10 км ясно +21.2 +12.4 57 +23 +23 комфорт 1019.6 1014.8
06 22.08 СЗ 3 10 км 3/0
[Ac trans]
+22.6 +13.2 55 +26 +29 жарко 1020.8 1015.9 +19.9
09 22.08 СЗ 5 10 км 4/0
[Ci sp]
+28.0 +17.6 53 +32 +39 душно 1020.9 1016.1
12 22.08 СЗ 4 10 км 5/3 600 м
[Cu med, cong Ac trans Ci sp]
+31.7 +15.5 38 +34 +39 душно 1019.9 1015.2
15 22.08 СЗ 3 10 км 6/0
[Ac trans Ci sp]
+30.5 +15.7 41 +33 +35 душно 1019.6 1014.9
18 22.08 С 2 10 км 1/0
[Ci sp]
+27.2 +16.0 50 +30 +30 душно 1020.9 1016.1 +32.2
21 22.08 С 2 10 км ясно +23.4 +16.0 63 +28 +28 душно 1022.0 1017.1
00 23.08 С 3 10 км ясно +21.0 +14.9 68 +25 +25 комфорт 1022.4 1017.5
03 23.08 С 2 10 км ясно +19.1 +14.3 74 +21 +21 комфорт 1022.6 1017.6
06 23.08 СЗ 4 10 км 3/0
[Ci sp]
+20.9 +14.8 68 +24 +27 комфорт 1023.4 1018.5 +19.0
09 23.08 С 4 10 км 8/0
[Ac trans Ci sp]
+27.0 +15.9 51 +30 +36 душно 1023.1 1018.3
12 23.08 СЗ 4 10 км 4/3 600 м
[Cu hum Ci sp]
+31.0 +15.6 39 +33 +39 душно 1021.7 1017.0

 

Местоположение метеостанции Дубоссары (Молдова): широта 47.28 долгота 29.00 высота над уровнем моря 40 м.

В архиве по умолчанию представлена погода в Дубоссарах за последнюю неделю. Архивные данные за месяц целиком и за предыдущие месяцы, начиная с января 2011 года, Вы можете получить, выбрав интересующий диапазон дат из раскрывающегося списка и нажав кнопку "Ввод!".


*Определитесь, кто Вы:
робот инопланетянин человек

Внимание! Время в таблицах - всемирное. Для получения местного времени необходимо прибавить поправку, которая равна 2 ч.

Смотрите также архив погоды в соседних городах и на ближайших метеорологических станциях:

Погода в Балцате (Молдова) (26 км)
Погода в Кишиневе (Молдова) (29 км)
Погода в Бравичах (Молдова) (44 км)
Погода в Кодрах (Молдова) (51 км)
Погода в Рыбнице (Молдова) (55 км)
Погода в Тирасполе (Молдова) (62 км)
Погода в Затишье (Одесская область, Украина) (67 км)
Погода в Корнестах (Молдова) (70 км)
Погода в Каменке (Молдова) (86 км)
Погода в Штефан Водэ (Молдова) (92 км)

Пояснения к столбцам:

Ветер - указаны скорость ветра в м/с - средняя за 10 мин, порывы в срок и между сроками (в фигурных скобках) и направление, откуда дует ветер: С - северный, СВ - северо-восточный, В - восточный, ЮВ - юго-восточный, Ю - южный, ЮЗ - юго-западный, З - западный, СЗ - северо-западный.
Видимость - горизонтальная дальность видимости в метрах или километрах. При видимости от 1 до 10 км при отсутствии осадков обычно наблюдается дымка, при ухудшении видимости до 1 км и менее - туман. В сухую погоду видимость может ухудшаться дымом, пылью или мглою.
Явления - указаны атмосферные явления, наблюдавшиеся в срок или в последний час перед сроком; фигурными скобками обозначены явления, наблюдавшиеся между сроками (за 1-3 часа до срока); квадратными скобками обозначены град или гололедные отложения с указанием их диаметра в мм.
Облачность - указаны через наклонную черту общая и нижняя облачность в баллах и высота нижней границы облаков в метрах; квадратными скобками обозначены формы облаков: Ci - перистые, Cs - перисто-слоистые, Cc - перисто-кучевые, Ac - высококучевые, As - высокослоистые, Sc - слоисто-кучевые, Ns - слоисто-дождевые, Cu - кучевые, Cb - кучево-дождевые. Подробнее классификацию облаков см. в Атласе облаков (PDF).
T - Температура воздуха - температура, измеренная на высоте 2 м над землей.
Td - Температура точки росы - температура, при понижении до которой содержащийся в воздухе водяной пар достигнет насыщения.
f - Относительная влажность воздуха - влажноcть воздуха, измеренная на высоте 2 м над землей.
Te - Эффективная температура - температура, которую ощущает одетый по сезону человек в тени. Характеристика душности погоды. При расчете учитывается влияние влажности воздуха и скорости ветра на теплоощущения человека.
Tes - Эффективная температура на солнце - температура, которую ощущает человек, с поправкой на солнечный нагрев. Характеристика знойности погоды. Зависит от высоты солнца над горизонтом, облачности и скорости ветра. Ночью, в пасмурную погоду, а также при ветре 12 м/с и более поправка равна нулю.
P - Атмосферное давление - приведенное к уровню моря атмосферное давление.
Po - Атмосферное давление - измеренное на уровне метеостанции атмосферное давление.
Tmin - Минимальная температура - минимум температуры воздуха на высоте 2 м над землей.
Tmax - Максимальная температура - максимум температуры воздуха на высоте 2 м над землей.
R - Количество осадков - Количество выпавших осадков за период времени, мм. При наведении курсора мыши на число - период времени, за который выпало указанное количество осадков.
R24 - Количество осадков - Количество выпавших осадков за 24 часа, мм.
S - Снежный покров - Высота снежного покрова, см. При наведении курсора мыши на число - состояние снежного покрова и степень покрытия местности в баллах.